Probability
0 0 0 0 0 0 0 0 0 0 0 0 0 0 0 0 0 0 0 0 0 0 0 0 0 0 0 0 0 0 0 0 0 0 0 0 0 0 0 0 0 0 0
0 0 0 0 0 0 0 0 0 0 0 0 0 0 0 0 0 0 0 0 0 0 0 0 0 0 0 0 0 0 0 0 0 0 0 0 0 0 0 0 0 0 0
0 0 0 0 0 0 0 0 0 0 0 0 0 0 0 0 0 0 0 0 0 0 0 0 0 0 0 0 0 0 0 0 0 0 0 0 0 0 0 0 0 0 0
0 0 0 0 0 0 0 0 0 0 0 0 0 0 0 0 0 0 0 0 0 0 0 0 0 0 0 0 0 0 0 0 0 0 0 0 0 0 0 0 0 0 0
0 0 0 0 0 0 0 0 0 0 0 0 0 0 0 0 0 0 0 0 0 0 0 0 0 0 0 0 0 0 0 0 0 0 0 0 0 0 0 0 0 0 0
0 0 0 0 0 0 0 0 0 0 0 0 0 0 0 0 0 0 0 0 0 0 0 0 0 0 0 0 0 0 0 0 0 0 0 0 0 0 0 0 0 0 0
0 0 0 0 0 0 0 0 0 0 0 0 0 0 0 0 0 0 0 0 0 0 0 0 0 0 0 0 0 0 0 0 0 0 0 0 0 0 0 0 0 0 0
0 0 0 0 0 0 0 0 0 0 0 0 0 0 0 0 0 0 0 0 0 0 0 0 0 0 0 0 0 0 0 0 0 0 0 0 0 0 0 0 0 0 0
0 0 0 0 0 0 0 0 0 0 0 0 0 0 0 0 0 0 0 0 0 0 0 0 0 0 0 0 0 0 0 0 0 0 0 0 0 0 0 0 0 0 0
0 0 0 0 0 0 0 0 0 0 0 0 0 0 0 0 0 0 0 0 0 0 0 0 0 0 0 0 0 0 0 0 0 0 0 0 0 0 0 0 0 0 0
0 0 0 0 0 0 0 0 0 0 0 0 0 0 0 0 0 0 0 0 0 0 0 0 0 0 0 0 0 0 0 0 0 0 0 0 0 0 0 0 0 0 0
0 0 0 0 0 0 0 0 0 0 0 0 0 0 0 0 0 0 0 0 0 0 0 0 0 0 0 0 0 0 0 0 0 0 0 0 0 0 0 0 0 0 0
0 0 0 0 0 0 0 0 0 0 0 0 0 0 0 0 0 0 0 0 0 0 0 0 0 0 0 0 0 0 0 0 0 0 0 0 0 0 0 0 0 0 0
0 0 0 0 0 0 0 0 0 0 0 0 0 0 0 0 0 0 0 0 0 0 0 0 0 0 0 0 0 0 0 0 0 0 0 0 0 0 0 0 0 0 0
0 0 0 0 0 0 0 0 0 0 0 0 0 0 0 0 0 0 0 0 0 0 0 0 0 0 0 0 0 0 0 0 0 0 0 0 0 0 0 0 0 0 0
0 0 0 0 0 0 0 0 0 0 0 0 0 0 0 0 0 0 0 0 0 0 0 0 0 0 0 0 0 0 0 0 0 0 0 0 0 0 0 0 0 0 0
0 0 0 0 0 0 0 0 0 0 0 0 0 0 0 0 0 0 0 0 0 0 0 0 0 0 0 0 0 0 0 0 0 0 0 0 0 0 0 0 0 0 0
0 0 0 0 0 0 0 0 0 0 0 0 0 0 0 0 0 0 0 0 0 0 0 0 0 0 0 0 0 0 0 0 0 0 0 0 0 0 0 0 0 0 0
0 0 0 0 0 0 0 0 0 0 0 0 0 0 0 0 0 0 0 0 0 0 0 0 0 0 0 0 0 0 0 0 0 0 0 0 0 0 0 0 0 0 0
0 0 0 0 0 0 0 0 0 0 0 0 0 0 0 0 0 0 0 0 0 0 0 0 0 0 0 0 0 0 0 0 0 0 0 0 0 0 0 0 0 0 0
0 0 0 0 0 0 0 0 0 0 0 0 0 0 0 0 0 0 0 0 0 0 0 0 0 0 0 0 0 0 0 0 0 0 0 0 0 0 0 0 0 0 0
0 0 0 0 0 0 0 0 0 0 0 0 0 0 0 0 0 0 0 0 0 0 0 0 0 0 0 0 0 0 0 0 0 0 0 0 0 0 0 0 0 0 0
0 0 0 0 0 0 0 0 0 0 0 0 0 0 0 0 0 0 0 0 0 0 0 0 0 0 0 0 0 0 0 0 0 0 0 0 0 0 0 0 0 0 0
0 0 0 0 0 0 0 0 0 0 0 0 0 0 0 0 0 0 0 0 0 0 0 0 0 0 0 0 0 0 0 0 0 0 0 0 0 0 0 0 0 0 0
0 0 0 0 0 0 0 0 0 0 0 0 0 0 0 0 0 0 0 0 0 0 0 0 0 0 0 0 0 0 0 0 0 0 0 0 0 0 0 0 0 0 0
0 0 0 0 0 0 0 0 0 0 0 0 0 0 0 0 0 0 0 0 0 0 0 0 0 0 0 0 0 0 0 0 0 0 0 0 0 0 0 0 0 0 0
Height
5882 5881 5881 5881 5880 5880 5880 5879 5879 5878 5878 5877 5877 5877 5876 5876 5875 5874 5874 5873 5873 5872 5871 5870 5870 5869 5869 5868 5868 5867 5867 5866 5866 5866 5865 5865 5865 5864 5864 5864 5863 5863 5863
5880 5880 5879 5879 5879 5878 5878 5877 5877 5877 5876 5875 5875 5874 5874 5873 5873 5872 5871 5870 5870 5869 5868 5867 5867 5866 5865 5865 5865 5864 5863 5863 5862 5862 5862 5861 5861 5861 5860 5860 5860 5859 5859
5878 5878 5878 5877 5877 5877 5876 5875 5875 5874 5874 5873 5873 5872 5871 5871 5870 5869 5868 5867 5867 5866 5865 5864 5863 5863 5862 5861 5861 5860 5860 5859 5859 5858 5858 5857 5857 5857 5856 5856 5856 5856 5855
5877 5876 5876 5876 5875 5875 5874 5873 5873 5872 5871 5871 5870 5869 5868 5868 5867 5866 5865 5864 5863 5862 5862 5861 5860 5859 5858 5858 5857 5856 5856 5855 5854 5854 5854 5853 5853 5852 5852 5852 5851 5851 5851
5875 5875 5874 5874 5873 5872 5872 5871 5870 5869 5869 5868 5867 5866 5865 5864 5863 5863 5862 5861 5860 5859 5858 5857 5856 5855 5854 5854 5853 5852 5852 5851 5850 5850 5849 5849 5848 5848 5847 5847 5847 5847 5846
5874 5873 5872 5872 5871 5870 5869 5869 5868 5867 5866 5865 5864 5863 5862 5861 5860 5859 5858 5857 5856 5855 5854 5853 5852 5851 5850 5849 5849 5848 5847 5846 5846 5845 5844 5844 5843 5843 5842 5842 5842 5841 5841
5872 5871 5871 5870 5869 5868 5867 5866 5865 5864 5863 5862 5861 5860 5859 5858 5856 5855 5854 5853 5852 5851 5850 5849 5848 5846 5846 5845 5844 5843 5842 5842 5841 5840 5839 5838 5838 5837 5837 5836 5836 5836 5835
5871 5870 5869 5868 5867 5866 5865 5863 5862 5861 5860 5859 5858 5857 5855 5854 5853 5852 5850 5849 5848 5847 5845 5844 5843 5842 5841 5840 5839 5838 5837 5836 5835 5834 5834 5833 5832 5832 5831 5830 5830 5829 5829
5869 5868 5866 5865 5864 5863 5862 5861 5859 5858 5857 5856 5854 5853 5852 5850 5849 5848 5846 5845 5844 5842 5841 5840 5838 5837 5836 5835 5834 5833 5832 5830 5830 5829 5828 5827 5826 5825 5825 5824 5824 5823 5823
5867 5865 5864 5863 5861 5860 5859 5858 5856 5855 5854 5852 5851 5849 5848 5846 5845 5843 5842 5840 5839 5838 5836 5835 5833 5832 5831 5829 5828 5827 5826 5825 5824 5822 5821 5821 5820 5819 5818 5818 5817 5816 5816
5864 5863 5861 5860 5858 5857 5856 5854 5853 5851 5850 5848 5847 5845 5844 5842 5841 5839 5837 5836 5834 5833 5831 5830 5828 5827 5825 5824 5822 5821 5820 5818 5817 5816 5815 5814 5813 5812 5811 5810 5810 5809 5809
5861 5860 5858 5857 5855 5854 5852 5851 5849 5848 5846 5844 5843 5841 5840 5838 5836 5835 5833 5831 5829 5828 5826 5824 5823 5821 5819 5818 5816 5815 5813 5812 5811 5809 5808 5807 5806 5805 5804 5803 5802 5802 5801
5858 5857 5855 5854 5852 5850 5849 5847 5845 5844 5842 5840 5839 5837 5835 5834 5832 5830 5828 5826 5824 5822 5821 5819 5817 5815 5813 5811 5810 5808 5807 5805 5804 5802 5801 5800 5799 5797 5796 5795 5794 5793 5793
5855 5854 5852 5850 5849 5847 5845 5843 5842 5840 5838 5836 5834 5832 5831 5829 5827 5825 5823 5821 5819 5817 5815 5813 5811 5809 5807 5805 5803 5801 5800 5798 5796 5795 5794 5792 5791 5790 5788 5787 5786 5785 5784
5851 5850 5848 5847 5845 5843 5841 5840 5838 5836 5834 5832 5830 5828 5826 5824 5822 5820 5818 5816 5814 5811 5809 5807 5805 5803 5801 5799 5797 5795 5793 5791 5789 5787 5786 5784 5783 5781 5780 5779 5777 5776 5775
5847 5846 5844 5843 5841 5839 5837 5835 5833 5831 5829 5827 5825 5823 5821 5819 5817 5815 5812 5810 5808 5806 5803 5801 5799 5796 5794 5792 5789 5787 5785 5783 5781 5779 5777 5775 5774 5772 5771 5769 5768 5766 5765
5843 5841 5840 5838 5836 5835 5833 5831 5829 5827 5825 5822 5820 5818 5815 5813 5811 5809 5806 5804 5802 5799 5797 5794 5792 5789 5787 5784 5782 5779 5777 5775 5772 5770 5768 5766 5764 5763 5761 5759 5758 5756 5755
5838 5837 5835 5834 5832 5830 5828 5826 5824 5822 5820 5817 5815 5812 5810 5808 5805 5803 5800 5798 5795 5793 5790 5788 5785 5782 5780 5777 5774 5772 5769 5766 5764 5761 5758 5756 5754 5752 5750 5748 5747 5745 5744
5834 5832 5830 5829 5827 5825 5823 5821 5819 5817 5814 5812 5809 5807 5804 5802 5799 5797 5794 5791 5789 5786 5783 5780 5778 5775 5772 5769 5766 5763 5760 5757 5754 5751 5748 5746 5743 5741 5739 5737 5735 5733 5731
5828 5827 5825 5824 5822 5820 5818 5816 5814 5811 5809 5806 5804 5801 5799 5796 5793 5790 5787 5785 5782 5779 5776 5773 5770 5767 5764 5761 5758 5754 5751 5748 5744 5741 5738 5735 5732 5729 5727 5725 5722 5720 5719
5823 5821 5820 5818 5816 5814 5812 5810 5808 5806 5803 5801 5798 5795 5792 5789 5786 5783 5780 5777 5774 5771 5768 5764 5761 5758 5755 5751 5748 5745 5742 5738 5734 5730 5726 5723 5720 5717 5714 5711 5709 5707 5705
5817 5816 5814 5812 5811 5809 5806 5804 5802 5799 5797 5794 5791 5788 5785 5782 5779 5776 5773 5770 5766 5763 5759 5756 5752 5749 5745 5741 5738 5734 5732 5729 5724 5720 5716 5711 5707 5704 5701 5697 5694 5692 5689
5811 5810 5808 5806 5804 5802 5800 5798 5795 5793 5790 5787 5785 5782 5778 5775 5772 5768 5765 5761 5758 5754 5750 5746 5742 5739 5735 5731 5726 5722 5719 5716 5714 5711 5706 5701 5696 5692 5688 5684 5680 5677 5673
5805 5803 5802 5800 5798 5796 5793 5791 5788 5786 5783 5780 5777 5774 5771 5767 5764 5760 5756 5753 5749 5745 5741 5737 5732 5728 5724 5720 5715 5710 5706 5701 5698 5697 5695 5689 5684 5680 5675 5671 5666 5662 5658
5798 5797 5795 5793 5791 5789 5786 5784 5781 5778 5776 5773 5769 5766 5763 5759 5755 5751 5747 5743 5739 5735 5730 5726 5722 5717 5712 5708 5703 5699 5694 5689 5684 5680 5679 5675 5670 5665 5661 5656 5651 5646 5642
5792 5790 5788 5786 5784 5782 5779 5776 5774 5771 5768 5764 5761 5758 5754 5750 5746 5742 5738 5733 5729 5724 5720 5715 5710 5705 5700 5695 5690 5685 5680 5676 5670 5666 5662 5659 5654 5650 5644 5639 5634 5629 5624
Wind_Speed
11 11 11 11 12 13 13 14 14 14 15 16 16 17 17 17 18 18 18 18 18 19 19 20 20 20 20 20 20 21 21 21 21 21 21 21 21 21 21 21 21 21 21
11 11 12 12 12 13 14 14 15 15 16 16 17 18 18 19 19 19 19 19 19 19 20 20 20 21 21 21 21 22 22 22 22 22 22 22 22 22 23 23 23 23 23
10 11 12 12 13 14 14 15 15 16 17 17 18 18 19 19 20 20 20 20 20 20 20 21 21 21 22 22 22 22 23 23 23 23 23 23 23 24 24 24 25 25 25
9 10 11 12 13 14 15 15 16 17 17 18 19 19 19 20 20 20 20 21 21 21 21 22 22 22 22 23 23 23 23 23 24 24 24 25 25 25 25 26 26 26 26
9 10 11 12 13 13 14 15 16 16 17 18 19 19 20 20 20 20 20 21 21 21 22 22 22 22 23 23 23 24 24 24 25 25 25 25 26 26 26 26 27 27 27
10 11 12 12 13 14 15 15 16 17 17 18 19 20 20 20 21 21 21 21 21 21 22 22 22 23 23 23 24 24 24 24 25 25 26 26 27 27 27 28 28 28 28
10 11 12 13 14 14 15 16 17 17 18 19 19 19 20 20 20 21 21 21 21 21 22 22 22 22 23 23 24 24 25 25 26 26 27 27 28 28 28 29 29 29 29
11 12 12 13 14 15 16 17 17 18 19 19 19 20 20 20 21 21 21 21 22 22 22 22 22 23 23 24 24 25 25 26 27 27 28 28 29 29 30 30 30 30 30
12 13 14 14 15 15 16 17 18 18 19 20 20 20 20 20 21 21 22 22 22 23 23 23 24 24 25 25 26 26 27 27 28 29 29 30 30 31 31 31 31 32 32
13 14 14 15 16 16 17 17 18 19 19 20 20 20 20 21 21 22 22 22 23 23 24 24 25 26 26 27 27 28 28 29 29 29 30 30 31 31 32 32 33 33 33
14 15 15 16 16 17 18 18 19 19 20 20 20 21 21 22 22 22 23 23 24 24 24 25 26 26 27 28 28 29 30 30 31 31 31 32 32 33 33 34 34 35 35
15 16 16 17 17 18 18 19 19 20 20 21 21 21 22 22 23 23 23 24 24 25 25 26 26 27 27 28 29 29 30 31 31 32 32 33 34 34 35 35 36 37 37
16 17 17 18 18 19 19 20 20 21 21 22 22 22 23 23 23 23 24 24 25 25 26 26 27 27 27 28 29 29 30 31 32 32 33 34 34 35 36 36 37 38 39
17 18 18 19 19 20 20 21 21 22 22 22 23 23 23 23 24 25 25 25 25 26 26 27 27 27 28 29 30 30 31 32 32 33 33 34 35 36 37 38 38 39 39
19 19 19 20 20 21 21 21 22 22 22 23 23 23 24 24 25 25 26 26 26 27 27 27 28 29 29 30 31 32 33 33 34 35 35 36 36 37 38 39 39 40 41
20 20 20 21 21 21 22 22 23 23 23 24 24 24 24 25 26 26 26 27 27 28 28 29 29 30 31 31 32 33 34 35 36 36 37 38 38 39 40 40 41 42 43
21 21 21 22 22 22 22 23 23 24 24 24 25 25 25 26 27 27 27 28 29 29 30 30 31 31 32 33 33 34 35 36 37 38 39 40 40 41 42 42 43 44 44
22 22 22 22 22 23 23 24 24 25 25 25 25 26 27 27 28 28 29 29 30 30 31 32 32 33 34 35 36 37 38 39 40 41 42 43 43 44 45 45 46 46 47
23 23 23 23 23 24 25 25 25 25 26 26 26 27 28 28 29 29 30 31 31 32 33 33 34 35 36 37 38 39 41 42 43 44 45 45 46 47 48 48 49 49 50
23 23 24 24 24 25 25 26 26 26 27 27 28 28 29 30 31 31 32 33 33 34 35 36 37 38 39 40 41 42 43 44 45 46 47 48 48 49 50 51 51 52 52
24 24 24 25 25 25 26 27 27 27 28 29 29 30 31 31 32 33 34 34 35 36 37 38 39 40 41 42 43 43 44 45 46 47 48 49 50 51 52 53 53 54 55
25 25 25 25 26 27 27 28 28 28 29 29 30 31 32 33 34 34 35 36 37 38 39 40 41 42 43 44 45 46 46 46 46 47 49 50 52 53 54 55 56 57 58
26 26 26 26 27 28 28 29 29 30 30 31 32 33 34 35 35 36 37 38 39 40 41 42 43 44 45 46 47 48 48 48 47 47 48 50 52 54 55 57 58 59 60
27 27 27 28 28 29 29 30 31 31 32 33 34 35 35 36 37 38 39 40 41 42 43 44 45 46 47 48 49 50 51 51 52 50 50 51 52 54 55 57 58 60 61
28 28 28 29 29 30 30 31 32 33 33 34 35 36 37 38 39 40 41 42 43 44 44 45 47 48 49 50 51 51 52 53 54 55 54 54 55 56 57 58 59 60 61
29 29 29 30 30 31 31 32 33 34 35 36 37 38 38 39 40 41 43 43 44 45 46 47 49 50 51 52 53 54 55 56 57 58 58 58 59 59 60 61 61 62 63
Wind_Direction
260 262 264 265 266 267 268 269 270 271 271 272 274 275 276 276 275 275 275 274 273 273 273 273 273 273 273 273 273 274 275 275 274 273 272 271 270 270 270 269 269 268 266
260 262 264 267 270 271 272 272 273 273 274 274 275 276 276 277 277 277 276 276 275 274 274 274 274 274 274 274 274 275 275 275 274 274 273 271 271 270 270 269 268 268 267
264 265 266 269 271 274 275 275 276 276 277 277 277 278 277 277 277 278 278 277 277 277 276 276 276 275 275 275 275 275 275 275 275 274 274 273 272 271 271 270 270 269 268
269 270 270 271 273 275 276 277 278 278 279 280 280 280 280 280 280 280 279 279 279 278 278 277 277 277 276 276 276 276 275 275 275 275 275 275 274 273 272 271 271 270 269
276 276 276 276 277 278 279 280 280 281 281 282 282 282 282 282 283 282 281 281 280 280 279 279 279 278 278 277 277 277 276 276 276 276 275 275 275 275 274 273 272 271 270
282 281 281 281 281 281 282 282 283 284 284 284 284 284 283 283 283 284 283 282 281 281 281 281 280 279 279 279 278 277 276 276 276 276 275 275 274 274 273 273 272 271 270
288 287 286 285 285 284 284 285 286 286 286 286 285 284 284 284 284 285 284 282 282 282 282 282 281 281 280 279 278 277 276 275 275 275 274 274 273 273 273 272 271 271 270
292 290 288 288 288 288 287 287 287 287 287 286 286 285 284 284 285 285 284 283 282 282 281 281 281 280 280 279 279 278 277 276 275 275 274 273 273 272 272 271 271 270 269
293 292 290 289 289 290 290 289 288 288 288 287 287 285 285 285 285 285 285 284 283 282 282 281 281 280 280 280 279 278 278 277 276 276 275 274 273 272 272 271 270 270 269
295 293 291 290 290 291 291 291 289 288 287 287 287 286 286 286 286 286 285 284 284 283 283 282 282 281 280 279 279 278 278 277 276 276 275 275 274 273 272 271 270 270 269
296 294 293 292 292 292 292 292 291 290 289 288 287 287 287 287 287 286 286 285 285 285 284 284 283 282 282 281 280 280 279 278 278 277 276 275 274 274 273 272 271 270 269
296 296 295 295 294 293 293 292 291 291 290 289 288 288 288 288 288 288 288 288 287 286 286 285 285 285 284 283 282 281 281 280 279 278 277 276 276 275 274 273 272 272 271
296 296 295 295 294 294 293 292 291 291 290 289 289 289 289 289 289 289 289 288 288 288 288 287 286 286 285 285 284 283 282 281 280 279 278 278 277 277 276 275 273 272 271
296 296 295 295 294 293 293 293 293 292 291 290 290 289 290 290 290 289 289 289 289 289 289 289 288 287 287 286 285 285 284 283 282 281 280 279 278 278 277 276 275 274 273
295 295 295 295 295 294 294 294 294 293 292 292 291 291 291 291 291 290 290 291 290 290 290 290 289 288 288 287 286 285 285 284 283 282 282 281 280 279 278 277 276 275 274
294 294 295 295 295 295 295 295 295 294 293 292 292 292 292 292 292 292 291 291 291 291 290 290 289 289 288 288 287 287 286 285 285 284 283 283 282 280 279 278 277 276 275
293 293 294 294 294 294 295 296 296 295 294 294 293 293 293 293 294 294 294 293 293 292 292 291 290 290 289 289 288 288 288 287 286 286 285 284 283 282 281 280 279 277 276
291 292 293 294 294 294 295 296 296 296 296 295 294 294 294 294 294 295 294 294 294 293 293 292 292 291 290 290 290 289 289 289 288 287 286 285 284 283 282 281 280 279 278
290 291 292 292 293 295 295 296 295 295 295 296 295 295 295 295 295 295 295 295 294 294 293 292 292 291 291 290 290 290 290 289 288 287 286 285 285 284 283 282 282 280 280
288 289 290 291 293 295 296 296 295 295 295 296 295 295 295 296 296 296 296 295 295 294 294 293 293 292 292 292 291 291 290 290 289 288 288 287 286 285 284 283 282 281 280
286 287 289 291 292 294 295 296 296 296 296 296 296 296 296 297 297 297 297 297 297 296 295 294 294 294 293 293 292 291 291 291 290 289 289 288 287 286 285 284 283 282 281
285 286 288 290 291 293 294 294 294 295 296 297 297 297 297 298 298 298 298 298 298 297 296 296 295 295 295 294 293 292 291 290 289 289 289 289 289 288 288 287 286 284 283
284 284 286 288 290 292 292 293 293 294 295 296 297 297 298 298 298 298 298 298 298 297 297 297 296 296 296 295 294 294 292 291 289 288 288 288 287 288 287 287 286 285 284
283 284 286 288 289 291 292 292 293 294 295 296 297 297 298 298 298 298 298 299 298 298 298 297 297 297 297 296 296 295 295 294 292 290 289 288 287 287 287 286 286 285 284
282 284 285 287 289 290 291 291 293 294 295 296 297 297 298 298 298 298 298 299 299 299 299 299 298 298 298 298 297 296 296 295 295 294 293 291 290 289 289 288 287 286 285
282 283 285 286 288 289 290 291 292 294 295 296 296 297 298 298 298 299 299 299 299 299 299 299 300 299 299 298 298 297 297 297 296 295 294 293 292 292 291 290 289 287 286